Weather History for NZAA - November, 2012

Change the Weather History Date:

Tuesday, November 6, 2012

  Actual Average Record
Temperature  
Mean Temperature 58 °F -  
Max Temperature 64 °F 64 °F 71 °F (1999)
Min Temperature 51 °F 53 °F 48 °F (1996)
Degree Days  
Heating Degree Days 8    
Growing Degree Days 8 (Base 50)    
Moisture  
Dew Point 50 °F    
Average Humidity 76    
Maximum Humidity 88    
Minimum Humidity 56    
Precipitation  
Precipitation 0.00 in - - ()
Sea Level Pressure  
Sea Level Pressure 30.19 in    
Wind  
Wind Speed 8 mph ()    
Max Wind Speed 15 mph    
Max Gust Speed -    
Visibility 6.2 miles    
Events Rain    
Averages and records for this station are not official NWS values.
T = Trace of Precipitation, MM = Missing Value Source: Averaged Metar Reports

Daily Weather History Graph

Daily Weather History Graph

Search for Another Location

Airport or City:

Trip Planner

Search our weather history database for the weather conditions in past years. The results will help you decide how hot, cold, wet, or windy it might be!

Date:

Astronomy

Nov. 06, 2012 Rise Set
Actual Time 6:10 AM NZDT 7:59 PM NZDT
Civil Twilight 5:42 AM NZDT 8:27 PM NZDT
Nautical Twilight 5:08 AM NZDT 9:01 PM NZDT
Astronomical Twilight 4:31 AM NZDT 9:37 PM NZDT
Moon 1:01 AM NZDT 11:41 AM NZDT
Length of Visible Light 14h 45m
Length of Day
13h 49m
Waning Gibbous, 60% of the Moon is Illuminated
Nov 6
Waning Gibbous
Nov 7
Last Quarter
Nov 14
New
Nov 21
First Quarter
Nov 29
Full

Hourly Weather History & Observations

Time (NZDT) Temp. Dew Point Humidity Pressure Visibility Wind Dir Wind Speed Gust Speed Precip Events Conditions
12:00 AM 55.4 °F 48.2 °F 77% 30.18 in - SW 15.0 mph - N/A   Clear
1:00 AM 55.4 °F 50.0 °F 82% 30.18 in 6.2 mi SW 13.8 mph - N/A   Partly Cloudy
2:00 AM 55.4 °F 48.2 °F 77% 30.18 in - SW 12.7 mph - N/A   Clear
3:00 AM 55.4 °F 48.2 °F 77% 30.18 in - SW 13.8 mph - N/A   Clear
4:00 AM 55.4 °F 48.2 °F 77% 30.18 in 6.2 mi SSW 11.5 mph - N/A   Partly Cloudy
5:00 AM 53.6 °F 48.2 °F 82% 30.18 in 6.2 mi SSW 11.5 mph - N/A   Partly Cloudy
6:00 AM 51.8 °F 48.2 °F 88% 30.18 in 6.2 mi South 6.9 mph - N/A   Partly Cloudy
7:00 AM 51.8 °F 48.2 °F 88% 30.18 in 6.2 mi ESE 3.5 mph - N/A   Partly Cloudy
8:00 AM 55.4 °F 50.0 °F 82% 30.21 in 6.2 mi SSE 3.5 mph - N/A   Scattered Clouds
9:00 AM 57.2 °F 50.0 °F 77% 30.21 in 6.2 mi South 4.6 mph - N/A   Scattered Clouds
10:00 AM 59.0 °F 50.0 °F 72% 30.21 in 6.2 mi South 6.9 mph - N/A   Mostly Cloudy
11:00 AM 60.8 °F 48.2 °F 63% 30.21 in 6.2 mi SSE 4.6 mph - N/A   Scattered Clouds
12:00 PM 62.6 °F 50.0 °F 63% 30.18 in 6.2 mi South 5.8 mph - N/A   Scattered Clouds
1:00 PM 60.8 °F 48.2 °F 63% 30.18 in 6.2 mi WSW 8.1 mph - N/A   Scattered Clouds
2:00 PM 62.6 °F 48.2 °F 59% 30.18 in 6.2 mi NW 3.5 mph - N/A   Scattered Clouds
3:00 PM 64.4 °F 48.2 °F 56% 30.18 in 6.2 mi NNE 1.2 mph - N/A   Scattered Clouds
4:00 PM 60.8 °F 50.0 °F 68% 30.15 in 6.2 mi SW 6.9 mph - N/A   Scattered Clouds
5:00 PM 62.6 °F 48.2 °F 59% 30.15 in 6.2 mi SE 3.5 mph - N/A   Scattered Clouds
6:00 PM 55.4 °F 51.8 °F 88% 30.18 in 6.2 mi South 4.6 mph - N/A Rain Rain Showers
7:00 PM 57.2 °F 53.6 °F 88% 30.18 in 6.2 mi East 3.5 mph - N/A Rain Light Rain Showers
8:00 PM 57.2 °F 51.8 °F 82% 30.21 in 6.2 mi NNE 3.5 mph - N/A   Scattered Clouds
9:00 PM 55.4 °F 51.8 °F 88% 30.24 in 6.2 mi WNW 4.6 mph - N/A   Scattered Clouds
10:00 PM 57.2 °F 53.6 °F 88% 30.24 in 6.2 mi NW 2.3 mph - N/A   Mostly Cloudy
11:00 PM 55.4 °F 51.8 °F 88% 30.27 in 6.2 mi WNW 4.6 mph - N/A Rain Light Rain Showers